Weather History for KVLD - January, 2013

Change the Weather History Date:

Saturday, January 19, 2013

  Actual Average Record
Temperature  
Mean Temperature 57 °F 50 °F  
Max Temperature 70 °F 62 °F 69 °F (2015)
Min Temperature 43 °F 38 °F 32 °F (2015)
Degree Days  
Heating Degree Days 8 15  
Month to date heating degree days 109 285  
Since 1 July heating degree days 550 898  
Growing Degree Days 6 (Base 50)    
Moisture  
Dew Point 39 °F    
Average Humidity 61    
Maximum Humidity 77    
Minimum Humidity 44    
Precipitation  
Precipitation 0.00 in 0.11 in 0.00 in (2015)
Month to date precipitation 0.22 2.94  
Year to date precipitation 0.22 2.94  
Sea Level Pressure  
Sea Level Pressure 30.35 in    
Wind  
Wind Speed 5 mph (NE)    
Max Wind Speed 12 mph    
Max Gust Speed 16 mph    
Visibility 10 miles    
Events      
T = Trace of Precipitation, MM = Missing Value Source: NWS Daily Summary

Daily Weather History Graph

Daily Weather History Graph

Search for Another Location

Airport or City:

Trip Planner

Search our weather history database for the weather conditions in past years. The results will help you decide how hot, cold, wet, or windy it might be!

Date:

Astronomy

Jan. 19, 2013 Rise Set
Actual Time 7:30 AM EST 5:57 PM EST
Civil Twilight 7:04 AM EST 6:23 PM EST
Nautical Twilight 6:35 AM EST 6:53 PM EST
Astronomical Twilight 6:06 AM EST 7:21 PM EST
Moon 12:18 PM EST (1/19) 1:09 AM EST (1/19)
Length of Visible Light 11h 19m
Length of Day
10h 27m
First Quarter, 57% of the Moon is Illuminated
Jan 19
First Quarter
Jan 26
Full
Feb 3
Last Quarter
Feb 10
New
Feb 17
First Quarter

Hourly Weather History & Observations

Time (EST) Temp. Windchill Dew Point Humidity Pressure Visibility Wind Dir Wind Speed Gust Speed Precip Events Conditions
12:53 AM 44.1 °F 41.5 °F 30.0 °F 58% 30.43 in 10.0 mi North 4.6 mph - N/A   Clear
1:53 AM 44.1 °F 41.5 °F 30.0 °F 58% 30.42 in 10.0 mi NNE 4.6 mph - N/A   Clear
2:53 AM 45.0 °F 41.8 °F 28.0 °F 52% 30.40 in 10.0 mi ENE 5.8 mph - N/A   Clear
3:53 AM 44.1 °F 40.8 °F 26.1 °F 49% 30.40 in 10.0 mi NE 5.8 mph - N/A   Partly Cloudy
4:53 AM 45.0 °F 40.1 °F 26.1 °F 48% 30.40 in 10.0 mi NE 9.2 mph - N/A   Mostly Cloudy
5:53 AM 45.0 °F 40.6 °F 27.0 °F 49% 30.41 in 10.0 mi NE 8.1 mph - N/A   Mostly Cloudy
6:53 AM 43.0 °F 39.5 °F 28.0 °F 56% 30.41 in 10.0 mi NE 5.8 mph - N/A   Clear
7:53 AM 43.0 °F 39.5 °F 28.9 °F 58% 30.42 in 10.0 mi NE 5.8 mph - N/A   Partly Cloudy
8:53 AM 48.9 °F - 30.0 °F 48% 30.43 in 10.0 mi NE 8.1 mph - N/A   Partly Cloudy
9:53 AM 54.0 °F - 35.1 °F 49% 30.44 in 10.0 mi ENE 9.2 mph - N/A   Partly Cloudy
10:53 AM 57.9 °F - 37.9 °F 47% 30.43 in 10.0 mi Variable 6.9 mph - N/A   Clear
11:53 AM 63.0 °F - 42.1 °F 46% 30.40 in 10.0 mi East 6.9 mph - N/A   Clear
12:53 PM 66.0 °F - 44.1 °F 45% 30.34 in 10.0 mi Variable 3.5 mph - N/A   Partly Cloudy
1:53 PM 69.1 °F - 46.0 °F 44% 30.30 in 10.0 mi ENE 4.6 mph - N/A   Clear
2:53 PM 70.0 °F - 46.9 °F 44% 30.27 in 10.0 mi Variable 3.5 mph - N/A   Scattered Clouds
3:53 PM 70.0 °F - 46.0 °F 42% 30.26 in 10.0 mi ENE 3.5 mph - N/A   Scattered Clouds
4:53 PM 68.0 °F - 46.9 °F 47% 30.27 in 10.0 mi East 3.5 mph - N/A   Scattered Clouds
5:53 PM 64.0 °F - 46.9 °F 54% 30.26 in 10.0 mi ENE 3.5 mph - N/A   Scattered Clouds
6:53 PM 57.0 °F - 46.9 °F 69% 30.28 in 10.0 mi Calm Calm - N/A   Scattered Clouds
7:53 PM 55.9 °F - 48.0 °F 75% 30.28 in 10.0 mi Calm Calm - N/A   Scattered Clouds
8:53 PM 55.0 °F - 46.9 °F 74% 30.28 in 9.0 mi NNE 3.5 mph - N/A   Clear
9:53 PM 57.0 °F - 46.9 °F 69% 30.28 in 8.0 mi NE 3.5 mph - N/A   Clear
10:53 PM 55.9 °F - 46.0 °F 69% 30.27 in 5.0 mi NE 3.5 mph - N/A   Haze
11:53 PM 51.1 °F - 45.0 °F 80% 30.27 in 5.0 mi Calm Calm - N/A   Haze